Location: Newark
(43.6583°N, 1.6617°E)
Time: 23:58:20
(UTC+00:00)

Tiros 1 - Pass Details

Date: 02 September 2019
Orbit: 630 x 664 km, 48.4° (Epoch: 18 September)

Event Time Altitude Azimuth Distance (km) Brightness Sun altitude
Rises 00:37:45 0° 293° (WNW) 2,920 - -37.3°
Reaches altitude 10° 00:40:05 10° 295° (WNW) 2,012 - -37.2°
Maximum altitude 00:44:43 80° 22° (NNE) 647 - -37.0°
Drops below altitude 10° 00:49:22 10° 110° (ESE) 2,019 - -36.7°
Sets 00:51:42 0° 112° (ESE) 2,930 - -36.6°
